Location: Winthrop
(48.4780°N, 120.1850°W)
Time: 09:12:18
(UTC-08:00)

A-11 Canister half - Visible Passes

Search period start: 07 February 2023 00:00
Search period end: 17 February 2023 00:00
Orbit: 1514 x 1686 km, 47.2° (Epoch: 06 February)

Date Brightness Start Highest point End Pass type
(mag) Time Alt. Az. Time Alt. Az. Time Alt. Az.
13 Feb 11.3 06:28:40 10° S 06:35:46 22° SE 06:42:44 10° E visible
14 Feb 11.3 06:06:07 10° S 06:12:56 21° SE 06:19:37 10° E visible
15 Feb 11.3 05:43:35 10° S 05:50:05 20° SE 05:56:28 10° E visible
16 Feb 11.3 05:21:07 10° SSE 05:27:15 18° SE 05:33:17 10° E visible
